Newcastle Airport

Airport
ICAO code: 
EGNT
IATA Code: 
NCL
Summary
ICAO Region: 
EUR
Territory: 
Location: 
Woolsington, Newcastle, England
Serving: 
Newcastle
Elevation: 
266 ft
Coordinates: 
Aerial View: 
55° 2' 12" N, 1° 41' 30" W
Metar
Observation
EGNT 020120Z 18005KT 140V230 9999 SCT017 13/11 Q1011
Station
Newcastle
Date/Time
2022-07-02 01:20:00
Wind direction
180°
Wind speed
05 kts
Lowest cloud amount
scattered clouds
Temperature
13°C
Dew point
11°C
Humidity
87%
QNH
1011 hPa
Weather condition
n/a

Description

Domestic and international airport serving Newcastle, Gateshead the north-east of England.

Climatology

Temperate Marine climate/Oceanic climate (Köppen climate classification Cfb). Moderately cool summer and comparatively warm winter with a temperature range of only 14°C. Prevailing south-westerly winds from the Atlantic Ocean.

Runways

Designator Length Width Surface Rops
7/25 2329 46 ASP Yes/Yes
Airport map: 
Aerial View: 

Accidents and Serious Incidents at or in the vicinity of EGNT

SKYbrary Partners:

Safety knowledge contributed by: